Location: Fontevrault
(47.1823°N, 0.0493°E)
Time: 11:13:49
(UTC+00:00)

SJ 16-02 - Pass Details

Date: 16 June 2021
Orbit: 606 x 616 km, 75.0° (Epoch: 28 July)

Event Time Altitude Azimuth Distance (km) Brightness Sun altitude
Rises 23:48:17 0° 345° (NNW) 2,877 6.3 -19.4°
Reaches altitude 10° 23:50:40 10° 354° (N) 1,968 5.2 -19.4°
Maximum altitude 23:54:46 37° 62° (ENE) 946 2.5 -19.4°
Enters shadow 23:57:01 22° 116° (ESE) 1,340 2.8 -19.4°
